Year,Month,Day,Hour,Minute,Value (Times are PST for temperature in C)
2008,10,14,00,00,8.00
2008,10,14,00,01,8.00
2008,10,14,00,02,8.00
2008,10,14,00,03,8.00
2008,10,14,00,04,8.00
2008,10,14,00,05,8.00
2008,10,14,00,06,8.00
2008,10,14,00,07,8.00
2008,10,14,00,08,8.00
2008,10,14,00,09,8.00
2008,10,14,00,10,8.00
2008,10,14,00,11,8.00
2008,10,14,00,12,7.90
2008,10,14,00,13,7.90
2008,10,14,00,14,7.90
2008,10,14,00,15,7.90
2008,10,14,00,16,7.90
2008,10,14,00,17,7.90
2008,10,14,00,18,7.90
2008,10,14,00,19,7.90
2008,10,14,00,20,7.90
2008,10,14,00,21,7.80
2008,10,14,00,22,7.80
2008,10,14,00,23,7.80
2008,10,14,00,24,7.80
2008,10,14,00,25,7.80
2008,10,14,00,26,7.80
2008,10,14,00,27,7.80
2008,10,14,00,28,7.80
2008,10,14,00,29,7.80
2008,10,14,00,30,7.80
2008,10,14,00,31,7.80
2008,10,14,00,32,7.80
2008,10,14,00,33,7.80
2008,10,14,00,34,7.80
2008,10,14,00,35,7.80
2008,10,14,00,36,7.80
2008,10,14,00,37,7.80
2008,10,14,00,38,7.70
2008,10,14,00,39,7.70
2008,10,14,00,40,7.70
2008,10,14,00,41,7.70
2008,10,14,00,42,7.70
2008,10,14,00,43,7.60
2008,10,14,00,44,7.60
2008,10,14,00,45,7.60
2008,10,14,00,46,7.60
2008,10,14,00,47,7.60
2008,10,14,00,48,7.60
2008,10,14,00,49,7.60
2008,10,14,00,50,7.60
2008,10,14,00,51,7.60
2008,10,14,00,52,7.60
2008,10,14,00,53,7.60
2008,10,14,00,54,7.60
2008,10,14,00,55,7.60
2008,10,14,00,56,7.60
2008,10,14,00,57,7.60
2008,10,14,00,58,7.60
2008,10,14,00,59,7.60
2008,10,14,01,00,7.60
2008,10,14,01,01,7.60
2008,10,14,01,02,7.60
2008,10,14,01,03,7.70
2008,10,14,01,04,7.70
2008,10,14,01,05,7.70
2008,10,14,01,06,7.80
2008,10,14,01,07,7.80
2008,10,14,01,08,7.80
2008,10,14,01,09,7.90
2008,10,14,01,10,7.90
2008,10,14,01,11,8.00
2008,10,14,01,12,8.00
2008,10,14,01,13,8.00
2008,10,14,01,14,8.10
2008,10,14,01,15,8.10
2008,10,14,01,16,8.20
2008,10,14,01,17,8.20
2008,10,14,01,18,8.20
2008,10,14,01,19,8.20
2008,10,14,01,20,8.20
2008,10,14,01,21,8.20
2008,10,14,01,22,8.20
2008,10,14,01,23,8.30
2008,10,14,01,24,8.30
2008,10,14,01,25,8.30
2008,10,14,01,26,8.30
2008,10,14,01,27,8.30
2008,10,14,01,28,8.30
2008,10,14,01,29,8.40
2008,10,14,01,30,8.40
2008,10,14,01,31,8.40
2008,10,14,01,32,8.40
2008,10,14,01,33,8.40
2008,10,14,01,34,8.40
2008,10,14,01,35,8.40
2008,10,14,01,36,8.40
2008,10,14,01,37,8.40
2008,10,14,01,38,8.40
2008,10,14,01,39,8.40
2008,10,14,01,40,8.50
2008,10,14,01,41,8.50
2008,10,14,01,42,8.50
2008,10,14,01,43,8.50
2008,10,14,01,44,8.60
2008,10,14,01,45,8.60
2008,10,14,01,46,8.60
2008,10,14,01,47,8.60
2008,10,14,01,48,8.60
2008,10,14,01,49,8.60
2008,10,14,01,50,8.60
2008,10,14,01,51,8.60
2008,10,14,01,52,8.60
2008,10,14,01,53,8.50
2008,10,14,01,54,8.50
2008,10,14,01,55,8.50
2008,10,14,01,56,8.50
2008,10,14,01,57,8.50
2008,10,14,01,58,8.40
2008,10,14,01,59,8.40
2008,10,14,02,00,8.40
2008,10,14,02,01,8.30
2008,10,14,02,02,8.30
2008,10,14,02,03,8.20
2008,10,14,02,04,8.20
2008,10,14,02,05,8.20
2008,10,14,02,06,8.20
2008,10,14,02,07,8.20
2008,10,14,02,08,8.10
2008,10,14,02,09,8.10
2008,10,14,02,10,8.10
2008,10,14,02,11,8.00
2008,10,14,02,12,8.00
2008,10,14,02,13,8.00
2008,10,14,02,14,7.90
2008,10,14,02,15,7.90
2008,10,14,02,16,7.90
2008,10,14,02,17,7.80
2008,10,14,02,18,7.80
2008,10,14,02,19,7.80
2008,10,14,02,20,7.80
2008,10,14,02,21,7.80
2008,10,14,02,22,7.80
2008,10,14,02,23,7.80
2008,10,14,02,24,7.70
2008,10,14,02,25,7.70
2008,10,14,02,26,7.70
2008,10,14,02,27,7.70
2008,10,14,02,28,7.60
2008,10,14,02,29,7.60
2008,10,14,02,30,7.60
2008,10,14,02,31,7.50
2008,10,14,02,32,7.50
2008,10,14,02,33,7.50
2008,10,14,02,34,7.40
2008,10,14,02,35,7.40
2008,10,14,02,36,7.30
2008,10,14,02,37,7.30
2008,10,14,02,38,7.30
2008,10,14,02,39,7.30
2008,10,14,02,40,7.30
2008,10,14,02,41,7.20
2008,10,14,02,42,7.20
2008,10,14,02,43,7.20
2008,10,14,02,44,7.20
2008,10,14,02,45,7.10
2008,10,14,02,46,7.10
2008,10,14,02,47,7.10
2008,10,14,02,48,7.00
2008,10,14,02,49,7.00
2008,10,14,02,50,7.00
2008,10,14,02,51,6.90
2008,10,14,02,52,6.90
2008,10,14,02,53,6.90
2008,10,14,02,54,6.90
2008,10,14,02,55,6.80
2008,10,14,02,56,6.80
2008,10,14,02,57,6.80
2008,10,14,02,58,6.80
2008,10,14,02,59,6.80
2008,10,14,03,00,6.80
2008,10,14,03,01,6.80
2008,10,14,03,02,6.80
2008,10,14,03,03,6.70
2008,10,14,03,04,6.70
2008,10,14,03,05,6.70
2008,10,14,03,06,6.70
2008,10,14,03,07,6.70
2008,10,14,03,08,6.70
2008,10,14,03,09,6.70
2008,10,14,03,10,6.70
2008,10,14,03,11,6.70
2008,10,14,03,12,6.70
2008,10,14,03,13,6.70
2008,10,14,03,14,6.70
2008,10,14,03,15,6.70
2008,10,14,03,16,6.70
2008,10,14,03,17,6.80
2008,10,14,03,18,6.80
2008,10,14,03,19,6.80
2008,10,14,03,20,6.80
2008,10,14,03,21,6.80
2008,10,14,03,22,6.80
2008,10,14,03,23,6.70
2008,10,14,03,24,6.70
2008,10,14,03,25,6.70
2008,10,14,03,26,6.70
2008,10,14,03,27,6.70
2008,10,14,03,28,6.70
2008,10,14,03,29,6.70
2008,10,14,03,30,6.70
2008,10,14,03,31,6.80
2008,10,14,03,32,6.80
2008,10,14,03,33,6.80
2008,10,14,03,34,6.80
2008,10,14,03,35,6.80
2008,10,14,03,36,6.80
2008,10,14,03,37,6.80
2008,10,14,03,38,6.80
2008,10,14,03,39,6.80
2008,10,14,03,40,6.80
2008,10,14,03,41,6.80
2008,10,14,03,42,6.80
2008,10,14,03,43,6.80
2008,10,14,03,44,6.70
2008,10,14,03,45,6.70
2008,10,14,03,46,6.70
2008,10,14,03,47,6.70
2008,10,14,03,48,6.80
2008,10,14,03,49,6.80
2008,10,14,03,50,6.80
2008,10,14,03,51,6.80
2008,10,14,03,52,6.80
2008,10,14,03,53,6.80
2008,10,14,03,54,6.80
2008,10,14,03,55,6.80
2008,10,14,03,56,6.80
2008,10,14,03,57,6.80
2008,10,14,03,58,6.80
2008,10,14,03,59,6.80
2008,10,14,04,00,6.80
2008,10,14,04,01,6.80
2008,10,14,04,02,6.80
2008,10,14,04,03,6.90
2008,10,14,04,04,6.90
2008,10,14,04,05,6.80
2008,10,14,04,06,6.80
2008,10,14,04,07,6.80
2008,10,14,04,08,6.80
2008,10,14,04,09,6.80
2008,10,14,04,10,6.80
2008,10,14,04,11,6.80
2008,10,14,04,12,6.80
2008,10,14,04,13,6.80
2008,10,14,04,14,6.80
2008,10,14,04,15,6.80
2008,10,14,04,16,6.80
2008,10,14,04,17,6.80
2008,10,14,04,18,6.80
2008,10,14,04,19,6.80
2008,10,14,04,20,6.80
2008,10,14,04,21,6.80
2008,10,14,04,22,6.80
2008,10,14,04,23,6.80
2008,10,14,04,24,6.80
2008,10,14,04,25,6.80
2008,10,14,04,26,6.80
2008,10,14,04,27,6.80
2008,10,14,04,28,6.80
2008,10,14,04,29,6.80
2008,10,14,04,30,6.80
2008,10,14,04,31,6.80
2008,10,14,04,32,6.80
2008,10,14,04,33,6.80
2008,10,14,04,34,6.80
2008,10,14,04,35,6.80
2008,10,14,04,36,6.80
2008,10,14,04,37,6.80
2008,10,14,04,38,6.80
2008,10,14,04,39,6.90
2008,10,14,04,40,6.90
2008,10,14,04,41,6.90
2008,10,14,04,42,6.90
2008,10,14,04,43,6.90
2008,10,14,04,44,6.90
2008,10,14,04,45,6.90
2008,10,14,04,46,6.90
2008,10,14,04,47,6.90
2008,10,14,04,48,6.90
2008,10,14,04,49,6.90
2008,10,14,04,50,6.90
2008,10,14,04,51,6.90
2008,10,14,04,52,6.90
2008,10,14,04,53,6.90
2008,10,14,04,54,6.90
2008,10,14,04,55,6.90
2008,10,14,04,56,7.00
2008,10,14,04,57,7.00
2008,10,14,04,58,7.00
2008,10,14,04,59,7.00
2008,10,14,05,00,6.90
2008,10,14,05,01,6.90
2008,10,14,05,02,6.90
2008,10,14,05,03,6.90
2008,10,14,05,04,6.90
2008,10,14,05,05,6.90
2008,10,14,05,06,6.90
2008,10,14,05,07,6.90
2008,10,14,05,08,6.90
2008,10,14,05,09,6.90
2008,10,14,05,10,6.90
2008,10,14,05,11,6.90
2008,10,14,05,12,6.90
2008,10,14,05,13,6.90
2008,10,14,05,14,6.90
2008,10,14,05,15,6.90
2008,10,14,05,16,6.90
2008,10,14,05,17,6.90
2008,10,14,05,18,6.90
2008,10,14,05,19,6.90
2008,10,14,05,20,6.90
2008,10,14,05,21,6.90
2008,10,14,05,22,6.80
2008,10,14,05,23,6.80
2008,10,14,05,24,6.80
2008,10,14,05,25,6.80
2008,10,14,05,26,6.80
2008,10,14,05,27,6.80
2008,10,14,05,28,6.80
2008,10,14,05,29,6.80
2008,10,14,05,30,6.80
2008,10,14,05,31,6.80
2008,10,14,05,32,6.80
2008,10,14,05,33,6.70
2008,10,14,05,34,6.70
2008,10,14,05,35,6.70
2008,10,14,05,36,6.70
2008,10,14,05,37,6.70
2008,10,14,05,38,6.70
2008,10,14,05,39,6.70
2008,10,14,05,40,6.70
2008,10,14,05,41,6.60
2008,10,14,05,42,6.60
2008,10,14,05,43,6.60
2008,10,14,05,44,6.60
2008,10,14,05,45,6.60
2008,10,14,05,46,6.60
2008,10,14,05,47,6.60
2008,10,14,05,48,6.60
2008,10,14,05,49,6.50
2008,10,14,05,50,6.40
2008,10,14,05,51,6.40
2008,10,14,05,52,6.40
2008,10,14,05,53,6.40
2008,10,14,05,54,6.40
2008,10,14,05,55,6.40
2008,10,14,05,56,6.40
2008,10,14,05,57,6.40
2008,10,14,05,58,6.40
2008,10,14,05,59,6.40
2008,10,14,06,00,6.40
2008,10,14,06,01,6.40
2008,10,14,06,02,6.40
2008,10,14,06,03,6.40
2008,10,14,06,04,6.40
2008,10,14,06,05,6.40
2008,10,14,06,06,6.40
2008,10,14,06,07,6.40
2008,10,14,06,08,6.40
2008,10,14,06,09,6.40
2008,10,14,06,10,6.40
2008,10,14,06,11,6.40
2008,10,14,06,12,6.40
2008,10,14,06,13,6.40
2008,10,14,06,14,6.40
2008,10,14,06,15,6.40
2008,10,14,06,16,6.40
2008,10,14,06,17,6.40
2008,10,14,06,18,6.40
2008,10,14,06,19,6.40
2008,10,14,06,20,6.40
2008,10,14,06,21,6.40
2008,10,14,06,22,6.40
2008,10,14,06,23,6.40
2008,10,14,06,24,6.50
2008,10,14,06,25,6.60
2008,10,14,06,26,6.60
2008,10,14,06,27,6.60
2008,10,14,06,28,6.60
2008,10,14,06,29,6.60
2008,10,14,06,30,6.60
2008,10,14,06,31,6.60
2008,10,14,06,32,6.60
2008,10,14,06,33,6.60
2008,10,14,06,34,6.60
2008,10,14,06,35,6.60
2008,10,14,06,36,6.60
2008,10,14,06,37,6.70
2008,10,14,06,38,6.70
2008,10,14,06,39,6.70
2008,10,14,06,40,6.70
2008,10,14,06,41,6.70
2008,10,14,06,42,6.80
2008,10,14,06,43,6.80
2008,10,14,06,44,6.80
2008,10,14,06,45,6.80
2008,10,14,06,46,6.80
2008,10,14,06,47,6.80
2008,10,14,06,48,6.80
2008,10,14,06,49,6.80
2008,10,14,06,50,6.80
2008,10,14,06,51,6.80
2008,10,14,06,52,6.80
2008,10,14,06,53,6.80
2008,10,14,06,54,6.80
2008,10,14,06,55,6.80
2008,10,14,06,56,6.80
2008,10,14,06,57,6.80
2008,10,14,06,58,6.80
2008,10,14,06,59,6.90
2008,10,14,07,00,6.90
2008,10,14,07,01,6.90
2008,10,14,07,02,6.90
2008,10,14,07,03,7.00
2008,10,14,07,04,7.00
2008,10,14,07,05,7.00
2008,10,14,07,06,7.00
2008,10,14,07,07,7.00
2008,10,14,07,08,7.10
2008,10,14,07,09,7.10
2008,10,14,07,10,7.10
2008,10,14,07,11,7.10
2008,10,14,07,12,7.10
2008,10,14,07,13,7.20
2008,10,14,07,14,7.20
2008,10,14,07,15,7.20
2008,10,14,07,16,7.20
2008,10,14,07,17,7.20
2008,10,14,07,18,7.20
2008,10,14,07,19,7.20
2008,10,14,07,20,7.20
2008,10,14,07,21,7.30
2008,10,14,07,22,7.30
2008,10,14,07,23,7.30
2008,10,14,07,24,7.30
2008,10,14,07,25,7.30
2008,10,14,07,26,7.30
2008,10,14,07,27,7.30
2008,10,14,07,28,7.30
2008,10,14,07,29,7.30
2008,10,14,07,30,7.30
2008,10,14,07,31,7.30
2008,10,14,07,32,7.30
2008,10,14,07,33,7.30
2008,10,14,07,34,7.30
2008,10,14,07,35,7.40
2008,10,14,07,36,7.40
2008,10,14,07,37,7.40
2008,10,14,07,38,7.40
2008,10,14,07,39,7.40
2008,10,14,07,40,7.40
2008,10,14,07,41,7.40
2008,10,14,07,42,7.50
2008,10,14,07,43,7.50
2008,10,14,07,44,7.50
2008,10,14,07,45,7.50
2008,10,14,07,46,7.50
2008,10,14,07,47,7.50
2008,10,14,07,48,7.50
2008,10,14,07,49,7.50
2008,10,14,07,50,7.50
2008,10,14,07,51,7.50
2008,10,14,07,52,7.50
2008,10,14,07,53,7.50
2008,10,14,07,54,7.50
2008,10,14,07,55,7.50
2008,10,14,07,56,7.50
2008,10,14,07,57,7.50
2008,10,14,07,58,7.50
2008,10,14,07,59,7.50
2008,10,14,08,00,7.50
2008,10,14,08,01,7.50
2008,10,14,08,02,7.50
2008,10,14,08,03,7.50
2008,10,14,08,04,7.40
2008,10,14,08,05,7.40
2008,10,14,08,06,7.40
2008,10,14,08,07,7.40
2008,10,14,08,08,7.30
2008,10,14,08,09,7.30
2008,10,14,08,10,7.30
2008,10,14,08,11,7.30
2008,10,14,08,12,7.30
2008,10,14,08,13,7.30
2008,10,14,08,14,7.20
2008,10,14,08,15,7.20
2008,10,14,08,16,7.20
2008,10,14,08,17,7.20
2008,10,14,08,18,7.10
2008,10,14,08,19,7.10
2008,10,14,08,20,7.10
2008,10,14,08,21,7.00
2008,10,14,08,22,7.00
2008,10,14,08,23,7.00
2008,10,14,08,24,7.00
2008,10,14,08,25,7.00
2008,10,14,08,26,7.00
2008,10,14,08,27,7.00
2008,10,14,08,28,7.00
2008,10,14,08,29,7.00
2008,10,14,08,30,7.10
2008,10,14,08,31,7.10
2008,10,14,08,32,7.10
2008,10,14,08,33,7.10
2008,10,14,08,34,7.10
2008,10,14,08,35,7.20
2008,10,14,08,36,7.20
2008,10,14,08,37,7.30
2008,10,14,08,38,7.30
2008,10,14,08,39,7.30
2008,10,14,08,40,7.30
2008,10,14,08,41,7.30
2008,10,14,08,42,7.40
2008,10,14,08,43,7.40
2008,10,14,08,44,7.40
2008,10,14,08,45,7.50
2008,10,14,08,46,7.50
2008,10,14,08,47,7.60
2008,10,14,08,48,7.60
2008,10,14,08,49,7.60
2008,10,14,08,50,7.70
2008,10,14,08,51,7.70
2008,10,14,08,52,7.70
2008,10,14,08,53,7.80
2008,10,14,08,54,7.80
2008,10,14,08,55,7.80
2008,10,14,08,56,7.90
2008,10,14,08,57,8.00
2008,10,14,08,58,8.10
2008,10,14,08,59,8.20
2008,10,14,09,00,8.40
2008,10,14,09,01,8.50
2008,10,14,09,02,8.60
2008,10,14,09,03,8.60
2008,10,14,09,04,8.60
2008,10,14,09,05,8.60
2008,10,14,09,06,8.60
2008,10,14,09,07,8.70
2008,10,14,09,08,8.70
2008,10,14,09,09,8.70
2008,10,14,09,10,8.80
2008,10,14,09,11,8.80
2008,10,14,09,12,8.80
2008,10,14,09,13,8.80
2008,10,14,09,14,8.80
2008,10,14,09,15,8.80
2008,10,14,09,16,8.80
2008,10,14,09,17,8.80
2008,10,14,09,18,8.80
2008,10,14,09,19,8.90
2008,10,14,09,20,8.90
2008,10,14,09,21,8.90
2008,10,14,09,22,8.90
2008,10,14,09,23,9.00
2008,10,14,09,24,9.00
2008,10,14,09,25,9.00
2008,10,14,09,26,9.00
2008,10,14,09,27,9.00
2008,10,14,09,28,9.10
2008,10,14,09,29,9.20
2008,10,14,09,30,9.20
2008,10,14,09,31,9.20
2008,10,14,09,32,9.20
2008,10,14,09,33,9.20
2008,10,14,09,34,9.20
2008,10,14,09,35,9.10
2008,10,14,09,36,9.10
2008,10,14,09,37,9.00
2008,10,14,09,38,9.10
2008,10,14,09,39,9.10
2008,10,14,09,40,9.10
2008,10,14,09,41,9.10
2008,10,14,09,42,9.10
2008,10,14,09,43,9.10
2008,10,14,09,44,9.10
2008,10,14,09,45,9.10
2008,10,14,09,46,9.10
2008,10,14,09,47,9.10
2008,10,14,09,48,9.10
2008,10,14,09,49,9.10
2008,10,14,09,50,9.10
2008,10,14,09,51,9.00
2008,10,14,09,52,9.00
2008,10,14,09,53,9.00
2008,10,14,09,54,9.10
2008,10,14,09,55,9.10
2008,10,14,09,56,9.10
2008,10,14,09,57,9.10
2008,10,14,09,58,9.10
2008,10,14,09,59,9.20
2008,10,14,10,00,9.20
2008,10,14,10,01,9.20
2008,10,14,10,02,9.20
2008,10,14,10,03,9.20
2008,10,14,10,04,9.30
2008,10,14,10,05,9.30
2008,10,14,10,06,9.30
2008,10,14,10,07,9.30
2008,10,14,10,08,9.30
2008,10,14,10,09,9.30
2008,10,14,10,10,9.30
2008,10,14,10,11,9.30
2008,10,14,10,12,9.30
2008,10,14,10,13,9.30
2008,10,14,10,14,9.30
2008,10,14,10,15,9.30
2008,10,14,10,16,9.30
2008,10,14,10,17,9.30
2008,10,14,10,18,9.30
2008,10,14,10,19,9.40
2008,10,14,10,20,9.40
2008,10,14,10,21,9.50
2008,10,14,10,22,9.50
2008,10,14,10,23,9.60
2008,10,14,10,24,9.60
2008,10,14,10,25,9.70
2008,10,14,10,26,9.70
2008,10,14,10,27,9.70
2008,10,14,10,28,9.80
2008,10,14,10,29,9.80
2008,10,14,10,30,9.90
2008,10,14,10,31,9.90
2008,10,14,10,32,9.80
2008,10,14,10,33,9.80
2008,10,14,10,34,9.80
2008,10,14,10,35,9.80
2008,10,14,10,36,9.80
2008,10,14,10,37,9.90
2008,10,14,10,38,9.90
2008,10,14,10,39,9.90
2008,10,14,10,40,10.00
2008,10,14,10,41,10.10
2008,10,14,10,42,10.10
2008,10,14,10,43,10.10
2008,10,14,10,44,10.20
2008,10,14,10,45,10.20
2008,10,14,10,46,10.20
2008,10,14,10,47,10.20
2008,10,14,10,48,10.20
2008,10,14,10,49,10.20
2008,10,14,10,50,10.20
2008,10,14,10,51,10.30
2008,10,14,10,52,10.40
2008,10,14,10,53,10.40
2008,10,14,10,54,10.40
2008,10,14,10,55,10.40
2008,10,14,10,56,10.50
2008,10,14,10,57,10.60
2008,10,14,10,58,10.60
2008,10,14,10,59,10.60
2008,10,14,11,00,10.60
2008,10,14,11,01,10.60
2008,10,14,11,02,10.70
2008,10,14,11,03,10.70
2008,10,14,11,04,10.60
2008,10,14,11,05,10.60
2008,10,14,11,06,10.60
2008,10,14,11,07,10.60
2008,10,14,11,08,10.60
2008,10,14,11,09,10.70
2008,10,14,11,10,10.80
2008,10,14,11,11,10.80
2008,10,14,11,12,10.70
2008,10,14,11,13,10.70
2008,10,14,11,14,10.80
2008,10,14,11,15,10.80
2008,10,14,11,16,10.80
2008,10,14,11,17,10.70
2008,10,14,11,18,10.70
2008,10,14,11,19,10.70
2008,10,14,11,20,10.60
2008,10,14,11,21,10.60
2008,10,14,11,22,10.60
2008,10,14,11,23,10.60
2008,10,14,11,24,10.60
2008,10,14,11,25,10.60
2008,10,14,11,26,10.60
2008,10,14,11,27,10.70
2008,10,14,11,28,10.70
2008,10,14,11,29,10.80
2008,10,14,11,30,10.80
2008,10,14,11,31,10.80
2008,10,14,11,32,10.80
2008,10,14,11,33,10.80
2008,10,14,11,34,10.80
2008,10,14,11,35,10.80
2008,10,14,11,36,10.80
2008,10,14,11,37,10.80
2008,10,14,11,38,10.70
2008,10,14,11,39,10.70
2008,10,14,11,40,10.60
2008,10,14,11,41,10.60
2008,10,14,11,42,10.60
2008,10,14,11,43,10.60
2008,10,14,11,44,10.60
2008,10,14,11,45,10.60
2008,10,14,11,46,10.60
2008,10,14,11,47,10.60
2008,10,14,11,48,10.50
2008,10,14,11,49,10.60
2008,10,14,11,50,10.60
2008,10,14,11,51,10.70
2008,10,14,11,52,10.80
2008,10,14,11,53,10.80
2008,10,14,11,54,10.90
2008,10,14,11,55,10.90
2008,10,14,11,56,10.90
2008,10,14,11,57,10.90
2008,10,14,11,58,10.90
2008,10,14,11,59,10.90
2008,10,14,12,00,10.90
2008,10,14,12,01,10.90
2008,10,14,12,02,10.80
2008,10,14,12,03,10.70
2008,10,14,12,04,10.80
2008,10,14,12,05,10.80
2008,10,14,12,06,10.90
2008,10,14,12,07,10.90
2008,10,14,12,08,10.90
2008,10,14,12,09,10.80
2008,10,14,12,10,10.90
2008,10,14,12,11,10.80
2008,10,14,12,12,10.80
2008,10,14,12,13,10.70
2008,10,14,12,14,10.70
2008,10,14,12,15,10.70
2008,10,14,12,16,10.70
2008,10,14,12,17,10.60
2008,10,14,12,18,10.60
2008,10,14,12,19,10.70
2008,10,14,12,20,10.70
2008,10,14,12,21,10.70
2008,10,14,12,22,10.80
2008,10,14,12,23,10.80
2008,10,14,12,24,10.90
2008,10,14,12,25,10.90
2008,10,14,12,26,11.00
2008,10,14,12,27,11.10
2008,10,14,12,28,11.10
2008,10,14,12,29,11.10
2008,10,14,12,30,11.10
2008,10,14,12,31,11.10
2008,10,14,12,32,11.10
2008,10,14,12,33,10.90
2008,10,14,12,34,10.80
2008,10,14,12,35,10.70
2008,10,14,12,36,10.60
2008,10,14,12,37,10.70
2008,10,14,12,38,10.70
2008,10,14,12,39,10.80
2008,10,14,12,40,10.90
2008,10,14,12,41,10.90
2008,10,14,12,42,10.90
2008,10,14,12,43,10.90
2008,10,14,12,44,10.90
2008,10,14,12,45,10.90
2008,10,14,12,46,10.90
2008,10,14,12,47,10.90
2008,10,14,12,48,10.90
2008,10,14,12,49,10.90
2008,10,14,12,50,10.80
2008,10,14,12,51,10.70
2008,10,14,12,52,10.70
2008,10,14,12,53,10.70
2008,10,14,12,54,10.70
2008,10,14,12,55,10.80
2008,10,14,12,56,10.80
2008,10,14,12,57,10.70
2008,10,14,12,58,10.70
2008,10,14,12,59,10.60
2008,10,14,13,00,10.60
2008,10,14,13,01,10.60
2008,10,14,13,02,10.60
2008,10,14,13,03,10.60
2008,10,14,13,04,10.60
2008,10,14,13,05,10.60
2008,10,14,13,06,10.60
2008,10,14,13,07,10.50
2008,10,14,13,08,10.40
2008,10,14,13,09,10.50
2008,10,14,13,10,10.60
2008,10,14,13,11,10.60
2008,10,14,13,12,10.60
2008,10,14,13,13,10.60
2008,10,14,13,14,10.60
2008,10,14,13,15,10.60
2008,10,14,13,16,10.60
2008,10,14,13,17,10.60
2008,10,14,13,18,10.60
2008,10,14,13,19,10.60
2008,10,14,13,20,10.50
2008,10,14,13,21,10.40
2008,10,14,13,22,10.50
2008,10,14,13,23,10.60
2008,10,14,13,24,10.60
2008,10,14,13,25,10.60
2008,10,14,13,26,10.60
2008,10,14,13,27,10.60
2008,10,14,13,28,10.60
2008,10,14,13,29,10.60
2008,10,14,13,30,10.60
2008,10,14,13,31,10.60
2008,10,14,13,32,10.60
2008,10,14,13,33,10.60
2008,10,14,13,34,10.60
2008,10,14,13,35,10.60
2008,10,14,13,36,10.60
2008,10,14,13,37,10.60
2008,10,14,13,38,10.60
2008,10,14,13,39,10.60
2008,10,14,13,40,10.60
2008,10,14,13,41,10.70
2008,10,14,13,42,10.70
2008,10,14,13,43,10.70
2008,10,14,13,44,10.70
2008,10,14,13,45,10.80
2008,10,14,13,46,10.80
2008,10,14,13,47,10.80
2008,10,14,13,48,10.80
2008,10,14,13,49,10.80
2008,10,14,13,50,10.80
2008,10,14,13,51,10.80
2008,10,14,13,52,10.80
2008,10,14,13,53,10.80
2008,10,14,13,54,10.80
2008,10,14,13,55,10.80
2008,10,14,13,56,10.90
2008,10,14,13,57,10.90
2008,10,14,13,58,10.90
2008,10,14,13,59,10.90
2008,10,14,14,00,10.90
2008,10,14,14,01,10.90
2008,10,14,14,02,10.90
2008,10,14,14,03,10.90
2008,10,14,14,04,10.90
2008,10,14,14,05,10.90
2008,10,14,14,06,10.90
2008,10,14,14,07,10.90
2008,10,14,14,08,10.90
2008,10,14,14,09,10.90
2008,10,14,14,10,10.90
2008,10,14,14,11,10.90
2008,10,14,14,12,11.00
2008,10,14,14,13,11.10
2008,10,14,14,14,11.10
2008,10,14,14,15,11.10
2008,10,14,14,16,11.10
2008,10,14,14,17,11.20
2008,10,14,14,18,11.20
2008,10,14,14,19,11.20
2008,10,14,14,20,11.20
2008,10,14,14,21,11.20
2008,10,14,14,22,11.20
2008,10,14,14,23,11.20
2008,10,14,14,24,11.20
2008,10,14,14,25,11.10
2008,10,14,14,26,11.10
2008,10,14,14,27,11.10
2008,10,14,14,28,11.10
2008,10,14,14,29,11.10
2008,10,14,14,30,11.10
2008,10,14,14,31,11.10
2008,10,14,14,32,11.10
2008,10,14,14,33,11.10
2008,10,14,14,34,11.10
2008,10,14,14,35,11.10
2008,10,14,14,36,11.10
2008,10,14,14,37,11.10
2008,10,14,14,38,11.10
2008,10,14,14,39,11.10
2008,10,14,14,40,11.10
2008,10,14,14,41,11.10
2008,10,14,14,42,11.10
2008,10,14,14,43,11.20
2008,10,14,14,44,11.20
2008,10,14,14,45,11.20
2008,10,14,14,46,11.10
2008,10,14,14,47,11.10
2008,10,14,14,48,11.10
2008,10,14,14,49,11.10
2008,10,14,14,50,11.10
2008,10,14,14,51,11.10
2008,10,14,14,52,11.00
2008,10,14,14,53,10.90
2008,10,14,14,54,10.90
2008,10,14,14,55,10.90
2008,10,14,14,56,10.90
2008,10,14,14,57,10.90
2008,10,14,14,58,10.90
2008,10,14,14,59,10.90
2008,10,14,15,00,10.90
2008,10,14,15,01,10.90
2008,10,14,15,02,11.10
2008,10,14,15,03,11.10
2008,10,14,15,04,11.10
2008,10,14,15,05,11.20
2008,10,14,15,06,11.20
2008,10,14,15,07,11.20
2008,10,14,15,08,11.20
2008,10,14,15,09,11.20
2008,10,14,15,10,11.30
2008,10,14,15,11,11.30
2008,10,14,15,12,11.30
2008,10,14,15,13,11.40
2008,10,14,15,14,11.40
2008,10,14,15,15,11.40
2008,10,14,15,16,11.40
2008,10,14,15,17,11.40
2008,10,14,15,18,11.40
2008,10,14,15,19,11.40
2008,10,14,15,20,11.40
2008,10,14,15,21,11.40
2008,10,14,15,22,11.40
2008,10,14,15,23,11.40
2008,10,14,15,24,11.40
2008,10,14,15,25,11.40
2008,10,14,15,26,11.40
2008,10,14,15,27,11.40
2008,10,14,15,28,11.40
2008,10,14,15,29,11.40
2008,10,14,15,30,11.40
2008,10,14,15,31,11.40
2008,10,14,15,32,11.40
2008,10,14,15,33,11.40
2008,10,14,15,34,11.40
2008,10,14,15,35,11.40
2008,10,14,15,36,11.40
2008,10,14,15,37,11.40
2008,10,14,15,38,11.40
2008,10,14,15,39,11.40
2008,10,14,15,40,11.40
2008,10,14,15,41,11.40
2008,10,14,15,42,11.40
2008,10,14,15,43,11.40
2008,10,14,15,44,11.30
2008,10,14,15,45,11.30
2008,10,14,15,46,11.20
2008,10,14,15,47,11.20
2008,10,14,15,48,11.20
2008,10,14,15,49,11.20
2008,10,14,15,50,11.20
2008,10,14,15,51,11.20
2008,10,14,15,52,11.20
2008,10,14,15,53,11.20
2008,10,14,15,54,11.20
2008,10,14,15,55,11.20
2008,10,14,15,56,11.10
2008,10,14,15,57,11.10
2008,10,14,15,58,11.10
2008,10,14,15,59,11.10
2008,10,14,16,00,11.10
2008,10,14,16,01,11.10
2008,10,14,16,02,11.20
2008,10,14,16,03,11.20
2008,10,14,16,04,11.20
2008,10,14,16,05,11.20
2008,10,14,16,06,11.20
2008,10,14,16,07,11.20
2008,10,14,16,08,11.20
2008,10,14,16,09,11.10
2008,10,14,16,10,11.10
2008,10,14,16,11,11.10
2008,10,14,16,12,11.10
2008,10,14,16,13,11.10
2008,10,14,16,14,11.10
2008,10,14,16,15,11.10
2008,10,14,16,16,11.10
2008,10,14,16,17,11.20
2008,10,14,16,18,11.20
2008,10,14,16,19,11.20
2008,10,14,16,20,11.20
2008,10,14,16,21,11.30
2008,10,14,16,22,11.40
2008,10,14,16,23,11.40
2008,10,14,16,24,11.40
2008,10,14,16,25,11.40
2008,10,14,16,26,11.40
2008,10,14,16,27,11.40
2008,10,14,16,28,11.30
2008,10,14,16,29,11.30
2008,10,14,16,30,11.30
2008,10,14,16,31,11.40
2008,10,14,16,32,11.40
2008,10,14,16,33,11.40
2008,10,14,16,34,11.40
2008,10,14,16,35,11.40
2008,10,14,16,36,11.40
2008,10,14,16,37,11.50
2008,10,14,16,38,11.40
2008,10,14,16,39,11.40
2008,10,14,16,40,11.40
2008,10,14,16,41,11.40
2008,10,14,16,42,11.40
2008,10,14,16,43,11.40
2008,10,14,16,44,11.40
2008,10,14,16,45,11.40
2008,10,14,16,46,11.40
2008,10,14,16,47,11.40
2008,10,14,16,48,11.40
2008,10,14,16,49,11.40
2008,10,14,16,50,11.40
2008,10,14,16,51,11.40
2008,10,14,16,52,11.40
2008,10,14,16,53,11.40
2008,10,14,16,54,11.40
2008,10,14,16,55,11.40
2008,10,14,16,56,11.40
2008,10,14,16,57,11.40
2008,10,14,16,58,11.40
2008,10,14,16,59,11.30
2008,10,14,17,00,11.40
2008,10,14,17,01,11.30
2008,10,14,17,02,11.30
2008,10,14,17,03,11.30
2008,10,14,17,04,11.20
2008,10,14,17,05,11.20
2008,10,14,17,06,11.20
2008,10,14,17,07,11.10
2008,10,14,17,08,11.10
2008,10,14,17,09,11.10
2008,10,14,17,10,11.10
2008,10,14,17,11,11.10
2008,10,14,17,12,11.10
2008,10,14,17,13,11.10
2008,10,14,17,14,11.10
2008,10,14,17,15,11.10
2008,10,14,17,16,11.10
2008,10,14,17,17,11.00
2008,10,14,17,18,10.90
2008,10,14,17,19,10.90
2008,10,14,17,20,10.90
2008,10,14,17,21,10.90
2008,10,14,17,22,10.90
2008,10,14,17,23,10.80
2008,10,14,17,24,10.80
2008,10,14,17,25,10.80
2008,10,14,17,26,10.80
2008,10,14,17,27,10.80
2008,10,14,17,28,10.90
2008,10,14,17,29,10.90
2008,10,14,17,30,10.90
2008,10,14,17,31,10.90
2008,10,14,17,32,10.90
2008,10,14,17,33,10.90
2008,10,14,17,34,10.90
2008,10,14,17,35,10.90
2008,10,14,17,36,10.90
2008,10,14,17,37,10.90
2008,10,14,17,38,10.90
2008,10,14,17,39,10.90
2008,10,14,17,40,10.90
2008,10,14,17,41,10.90
2008,10,14,17,42,10.90
2008,10,14,17,43,10.80
2008,10,14,17,44,10.80
2008,10,14,17,45,10.80
2008,10,14,17,46,10.80
2008,10,14,17,47,10.70